This is the latest recevied weather packets stored in our database for station/object IZ5MMH-4. If no packets are shown the sender has not sent any weather packets the latest 10 day(s).
| Time | Temp. | Humidity | Pressure | Rain* | Wind** | Luminosity | Snow |
|---|---|---|---|---|---|---|---|
| 1787834664 | 33.89° C | 61% | 1017.1 hPa | - | - | - | - |
| 1787834064 | 33.89° C | 61% | 1017.5 hPa | - | - | - | - |
| 1787833463 | 33.89° C | 63% | 1017.3 hPa | - | - | - | - |
| 1787832864 | 33.33° C | 62% | 1017.5 hPa | - | - | - | - |
| 1787832264 | 33.33° C | 62% | 1017.8 hPa | - | - | - | - |
| 1787831663 | 33.33° C | 63% | 1018.3 hPa | - | - | - | - |
| 1787831063 | 33.33° C | 63% | 1018.6 hPa | - | - | - | - |
| 1787830463 | 33.33° C | 61% | 1018.5 hPa | - | - | - | - |
| 1787829864 | 33.33° C | 57% | 1018.2 hPa | - | - | - | - |
| 1787829264 | 33.33° C | 54% | 1018.2 hPa | - | - | - | - |
| 1787828663 | 33.33° C | 55% | 1018 hPa | - | - | - | - |
| 1787828063 | 33.33° C | 54% | 1017.8 hPa | - | - | - | - |
| 1787827464 | 33.33° C | 54% | 1017.5 hPa | - | - | - | - |
| 1787826863 | 32.78° C | 55% | 1017.4 hPa | - | - | - | - |
| 1787826263 | 32.78° C | 55% | 1017.1 hPa | - | - | - | - |
| 1787825663 | 32.78° C | 55% | 1017.2 hPa | - | - | - | - |
| 1787825064 | 32.78° C | 54% | 1017.3 hPa | - | - | - | - |
| 1787824463 | 32.22° C | 54% | 1017.1 hPa | - | - | - | - |
| 1787823863 | 32.22° C | 53% | 1017.2 hPa | - | - | - | - |
| 1787823264 | 31.67° C | 53% | 1017.2 hPa | - | - | - | - |
| 1787822663 | 31.67° C | 54% | 1017.2 hPa | - | - | - | - |
| 1787822063 | 31.67° C | 53% | 1017.3 hPa | - | - | - | - |
| 1787821464 | 31.67° C | 54% | 1017.2 hPa | - | - | - | - |
| 1787820863 | 31.11° C | 55% | 1017.1 hPa | - | - | - | - |
| 1787820263 | 31.11° C | 55% | 1017 hPa | - | - | - | - |
* Rain since midnight (hover to see other rain measurements)
** Current wind speed in m/s (hover to see current wind gust speed)